Weather History for KLGA - February, 2012

Change the Weather History Date:

Tuesday, February 21, 2012

  Actual Average Record
Temperature  
Mean Temperature 40 °F 36 °F  
Max Temperature 48 °F 43 °F 68 °F (1953)
Min Temperature 31 °F 29 °F 6 °F (1950)
Degree Days  
Heating Degree Days 25 29  
Month to date heating degree days 513 636  
Since 1 July heating degree days 2642 3235  
Cooling Degree Days 0 0  
Month to date cooling degree days 0 0  
Year to date cooling degree days 0 0  
Moisture  
Dew Point 25 °F    
Average Humidity 50    
Maximum Humidity 65    
Minimum Humidity 35    
Precipitation  
Precipitation T in 0.10 in 1.65 in (1951)
Month to date precipitation 0.33 2.01  
Year to date precipitation 2.84 5.18  
Snow  
Snow 0.00 in 0.30 in 4.30 in (2005)
Month to date snowfall T 7.0  
Since 1 July snowfall 5.1 19.9  
Snow Depth 0.00 in    
Sea Level Pressure  
Sea Level Pressure 30.16 in    
Wind  
Wind Speed 10 mph (South)    
Max Wind Speed 25 mph    
Max Gust Speed 33 mph    
Visibility 10 miles    
Events Rain    
T = Trace of Precipitation, MM = Missing Value Source: NWS Daily Summary

Daily Weather History Graph

Daily Weather History Graph

Search for Another Location

Airport or City:

Trip Planner

Search our weather history database for the weather conditions in past years. The results will help you decide how hot, cold, wet, or windy it might be!

Date:

Astronomy

Feb. 21, 2012 Rise Set
Actual Time 6:42 AM EST 5:36 PM EST
Civil Twilight 6:14 AM EST 6:04 PM EST
Nautical Twilight 5:42 AM EST 6:36 PM EST
Astronomical Twilight 5:10 AM EST 7:08 PM EST
Moon 6:09 AM EST (2/21) 5:41 PM EST (2/21)
Length of Visible Light 11h 50m
Length of Day
10h 54m
Waning Crescent, 0% of the Moon is Illuminated
Feb 21
Waning Crescent
Feb 21
New
Feb 29
First Quarter
Mar 8
Full
Mar 14
Last Quarter

Hourly Weather History & Observations

Time (EST) Temp. Windchill Dew Point Humidity Pressure Visibility Wind Dir Wind Speed Gust Speed Precip Events Conditions
12:51 AM 37.0 °F 32.4 °F 15.1 °F 41% 30.35 in 10.0 mi NW 5.8 mph - N/A   Clear
1:51 AM 35.1 °F 31.0 °F 17.1 °F 48% 30.36 in 10.0 mi East 4.6 mph - N/A   Clear
2:51 AM 34.0 °F 28.8 °F 17.1 °F 50% 30.34 in 10.0 mi ENE 5.8 mph - N/A   Clear
3:51 AM 33.1 °F - 18.0 °F 54% 30.34 in 10.0 mi Calm Calm - N/A   Clear
4:51 AM 32.0 °F - 18.0 °F 56% 30.35 in 10.0 mi Calm Calm - N/A   Partly Cloudy
5:51 AM 33.1 °F - 19.0 °F 56% 30.35 in 10.0 mi Calm Calm - N/A   Mostly Cloudy
6:51 AM 33.1 °F 27.7 °F 18.0 °F 54% 30.33 in 10.0 mi ESE 5.8 mph - N/A   Mostly Cloudy
7:51 AM 34.0 °F 28.8 °F 18.0 °F 52% 30.33 in 10.0 mi East 5.8 mph - N/A   Mostly Cloudy
8:51 AM 36.0 °F - 19.0 °F 50% 30.33 in 10.0 mi Calm Calm - N/A   Mostly Cloudy
9:51 AM 39.9 °F 36.7 °F 21.9 °F 49% 30.30 in 10.0 mi Variable 4.6 mph - N/A   Mostly Cloudy
10:51 AM 44.1 °F 36.8 °F 21.9 °F 42% 30.29 in 10.0 mi South 16.1 mph 20.7 mph N/A   Mostly Cloudy
11:51 AM 45.0 °F 38.2 °F 23.0 °F 42% 30.25 in 10.0 mi South 15.0 mph 21.9 mph N/A   Mostly Cloudy
12:51 PM 44.1 °F 36.2 °F 21.0 °F 40% 30.20 in 10.0 mi South 18.4 mph 23.0 mph N/A   Mostly Cloudy
1:51 PM 45.0 °F 37.1 °F 26.1 °F 48% 30.17 in 10.0 mi South 19.6 mph 29.9 mph N/A   Mostly Cloudy
2:51 PM 45.0 °F 36.0 °F 28.0 °F 52% 30.09 in 10.0 mi South 25.3 mph 29.9 mph N/A   Mostly Cloudy
3:51 PM 45.0 °F 37.4 °F 30.0 °F 56% 30.03 in 10.0 mi South 18.4 mph 33.4 mph N/A   Overcast
4:51 PM 45.0 °F 36.9 °F 32.0 °F 60% 30.01 in 10.0 mi South 20.7 mph 29.9 mph N/A   Overcast
5:51 PM 46.0 °F 39.3 °F 34.0 °F 63% 29.99 in 10.0 mi South 16.1 mph 21.9 mph N/A   Overcast
6:51 PM 46.0 °F 40.2 °F 35.1 °F 66% 29.98 in 10.0 mi South 12.7 mph 18.4 mph 0.00 in Rain Light Rain
7:51 PM 46.0 °F 42.5 °F 35.1 °F 66% 29.95 in 10.0 mi South 6.9 mph - 0.00 in   Mostly Cloudy
8:51 PM 46.0 °F 41.4 °F 35.1 °F 66% 29.93 in 10.0 mi SSW 9.2 mph - N/A   Mostly Cloudy
9:51 PM 46.0 °F 43.1 °F 35.1 °F 66% 29.92 in 10.0 mi SW 5.8 mph - N/A   Mostly Cloudy
10:51 PM 46.0 °F 40.6 °F 36.0 °F 68% 29.90 in 10.0 mi SW 11.5 mph - N/A   Mostly Cloudy
11:51 PM 46.9 °F - 35.1 °F 63% 29.86 in 10.0 mi SW 8.1 mph - N/A   Overcast